Time,TemperatureF,DewpointF,PressureIn,WindDirection,WindDirectionDegrees,WindSpeedMPH,WindSpeedGustMPH,Humidity,HourlyPrecipIn,Conditions,Clouds,dailyrainin,SoftwareType,DateUTC
2013-03-04 00:02:00,25.3,15.0,30.02,WNW,300,0.0,0.0,66,0.00,,,0.00,weatherlink.com 1.10,2013-03-04 05:02:00,
2013-03-04 00:17:00,25.6,15.0,30.02,WNW,300,0.0,2.0,65,0.00,,,0.00,weatherlink.com 1.10,2013-03-04 05:17:00,
2013-03-04 00:32:00,23.4,17.0,30.03,WNW,300,1.0,2.0,76,0.00,,,0.00,weatherlink.com 1.10,2013-03-04 05:32:00,
2013-03-04 00:47:00,23.0,17.0,30.03,WNW,300,0.0,0.0,76,0.00,,,0.00,weatherlink.com 1.10,2013-03-04 05:47:00,
2013-03-04 01:02:00,23.1,17.0,30.04,WNW,300,0.0,0.0,76,0.00,,,0.00,weatherlink.com 1.10,2013-03-04 06:02:00,
2013-03-04 01:17:00,21.8,17.0,30.04,WNW,300,0.0,0.0,80,0.00,,,0.00,weatherlink.com 1.10,2013-03-04 06:17:00,
2013-03-04 01:32:00,21.1,16.0,30.04,WNW,300,0.0,0.0,82,0.00,,,0.00,weatherlink.com 1.10,2013-03-04 06:32:00,
2013-03-04 01:47:00,21.2,17.0,30.05,WNW,300,0.0,2.0,82,0.00,,,0.00,weatherlink.com 1.10,2013-03-04 06:47:00,
2013-03-04 02:02:00,21.2,17.0,30.05,WNW,300,0.0,0.0,83,0.00,,,0.00,weatherlink.com 1.10,2013-03-04 07:02:00,
2013-03-04 02:17:00,20.5,16.0,30.05,WNW,300,0.0,0.0,83,0.00,,,0.00,weatherlink.com 1.10,2013-03-04 07:17:00,
2013-03-04 02:32:00,20.6,16.0,30.05,WNW,300,0.0,1.0,83,0.00,,,0.00,weatherlink.com 1.10,2013-03-04 07:32:00,
2013-03-04 02:47:00,20.2,16.0,30.06,WNW,300,0.0,0.0,85,0.00,,,0.00,weatherlink.com 1.10,2013-03-04 07:47:00,
2013-03-04 03:02:00,19.6,16.0,30.05,WNW,300,0.0,1.0,86,0.00,,,0.00,weatherlink.com 1.10,2013-03-04 08:02:00,
2013-03-04 03:17:00,19.8,16.0,30.05,WNW,300,0.0,0.0,86,0.00,,,0.00,weatherlink.com 1.10,2013-03-04 08:17:00,
2013-03-04 03:32:00,19.3,16.0,30.06,WNW,300,0.0,0.0,86,0.00,,,0.00,weatherlink.com 1.10,2013-03-04 08:32:00,
2013-03-04 03:47:00,18.9,15.0,30.07,WNW,300,0.0,0.0,86,0.00,,,0.00,weatherlink.com 1.10,2013-03-04 08:47:00,
2013-03-04 04:03:00,19.3,16.0,30.07,WNW,300,0.0,0.0,87,0.00,,,0.00,weatherlink.com 1.10,2013-03-04 09:03:00,
2013-03-04 04:18:00,19.2,15.0,30.08,WNW,300,0.0,0.0,85,0.00,,,0.00,weatherlink.com 1.10,2013-03-04 09:18:00,
2013-03-04 04:33:00,18.6,15.0,30.08,WNW,300,0.0,0.0,87,0.00,,,0.00,weatherlink.com 1.10,2013-03-04 09:33:00,
2013-03-04 04:48:00,18.6,15.0,30.09,NE,48,2.0,3.0,87,0.00,,,0.00,weatherlink.com 1.10,2013-03-04 09:48:00,
2013-03-04 05:03:00,18.6,15.0,30.09,NE,48,0.0,0.0,87,0.00,,,0.00,weatherlink.com 1.10,2013-03-04 10:03:00,
2013-03-04 05:18:00,18.2,15.0,30.09,NE,48,0.0,0.0,87,0.00,,,0.00,weatherlink.com 1.10,2013-03-04 10:18:00,
2013-03-04 05:33:00,17.9,14.0,30.11,NE,48,0.0,0.0,86,0.00,,,0.00,weatherlink.com 1.10,2013-03-04 10:33:00,
2013-03-04 05:48:00,17.2,14.0,30.11,NE,48,0.0,0.0,88,0.00,,,0.00,weatherlink.com 1.10,2013-03-04 10:48:00,
2013-03-04 06:03:00,17.2,15.0,30.11,NE,48,0.0,0.0,90,0.00,,,0.00,weatherlink.com 1.10,2013-03-04 11:03:00,
2013-03-04 06:18:00,17.5,15.0,30.12,NE,48,1.0,2.0,89,0.00,,,0.00,weatherlink.com 1.10,2013-03-04 11:18:00,
2013-03-04 06:33:00,17.2,15.0,30.13,NE,41,0.0,0.0,89,0.00,,,0.00,weatherlink.com 1.10,2013-03-04 11:33:00,
2013-03-04 06:48:00,17.4,14.0,30.13,NE,41,0.0,1.0,87,0.00,,,0.00,weatherlink.com 1.10,2013-03-04 11:48:00,
2013-03-04 07:03:00,17.0,14.0,30.14,NE,41,0.0,0.0,88,0.00,,,0.00,weatherlink.com 1.10,2013-03-04 12:03:00,
2013-03-04 07:18:00,17.5,15.0,30.14,NE,41,0.0,0.0,88,0.00,,,0.00,weatherlink.com 1.10,2013-03-04 12:18:00,
2013-03-04 07:33:00,18.8,16.0,30.15,NE,41,0.0,0.0,88,0.00,,,0.00,weatherlink.com 1.10,2013-03-04 12:33:00,
2013-03-04 07:48:00,21.0,18.0,30.14,NE,41,0.0,0.0,88,0.00,,,0.00,weatherlink.com 1.10,2013-03-04 12:48:00,
2013-03-04 08:03:00,24.3,20.0,30.14,NE,41,0.0,1.0,83,0.00,,,0.00,weatherlink.com 1.10,2013-03-04 13:03:00,
2013-03-04 08:18:00,25.7,20.0,30.15,East,86,1.0,3.0,78,0.00,,,0.00,weatherlink.com 1.10,2013-03-04 13:18:00,
2013-03-04 08:33:00,26.8,21.0,30.15,East,88,1.0,3.0,78,0.00,,,0.00,weatherlink.com 1.10,2013-03-04 13:33:00,
2013-03-04 08:48:00,29.6,22.0,30.15,East,88,1.0,3.0,72,0.00,,,0.00,weatherlink.com 1.10,2013-03-04 13:48:00,
2013-03-04 09:03:00,31.9,21.0,30.16,ESE,114,2.0,3.0,65,0.00,,,0.00,weatherlink.com 1.10,2013-03-04 14:03:00,
2013-03-04 09:19:00,34.2,19.0,30.16,NW,326,2.0,4.0,54,0.00,,,0.00,weatherlink.com 1.10,2013-03-04 14:19:00,
2013-03-04 09:34:00,35.1,16.0,30.16,NNW,339,3.0,5.0,46,0.00,,,0.00,weatherlink.com 1.10,2013-03-04 14:34:00,
2013-03-04 09:49:00,35.9,17.0,30.16,WSW,239,4.0,6.0,46,0.00,,,0.00,weatherlink.com 1.10,2013-03-04 14:49:00,
2013-03-04 10:04:00,37.1,16.0,30.16,ENE,70,3.0,6.0,42,0.00,,,0.00,weatherlink.com 1.10,2013-03-04 15:04:00,
2013-03-04 10:19:00,38.5,17.0,30.15,WSW,253,7.0,8.0,42,0.00,,,0.00,weatherlink.com 1.10,2013-03-04 15:19:00,
2013-03-04 10:34:00,38.8,16.0,30.15,WSW,250,1.0,6.0,39,0.00,,,0.00,weatherlink.com 1.10,2013-03-04 15:34:00,
2013-03-04 10:49:00,40.1,16.0,30.15,NW,304,5.0,9.0,37,0.00,,,0.00,weatherlink.com 1.10,2013-03-04 15:49:00,
2013-03-04 11:04:00,41.2,16.0,30.14,WNW,292,1.0,9.0,36,0.00,,,0.00,weatherlink.com 1.10,2013-03-04 16:04:00,
2013-03-04 11:19:00,42.2,16.0,30.14,WSW,240,7.0,10.0,35,0.00,,,0.00,weatherlink.com 1.10,2013-03-04 16:19:00,
2013-03-04 11:34:00,43.5,15.0,30.14,West,264,6.0,9.0,31,0.00,,,0.00,weatherlink.com 1.10,2013-03-04 16:34:00,
2013-03-04 11:49:00,44.1,16.0,30.13,WNW,289,5.0,9.0,32,0.00,,,0.00,weatherlink.com 1.10,2013-03-04 16:49:00,
2013-03-04 12:04:00,44.9,15.0,30.12,WNW,295,1.0,8.0,30,0.00,,,0.00,weatherlink.com 1.10,2013-03-04 17:04:00,
2013-03-04 12:19:00,45.8,13.0,30.12,West,263,2.0,9.0,27,0.00,,,0.00,weatherlink.com 1.10,2013-03-04 17:19:00,
2013-03-04 12:34:00,47.1,15.0,30.11,WSW,244,2.0,10.0,27,0.00,,,0.00,weatherlink.com 1.10,2013-03-04 17:34:00,
2013-03-04 12:49:00,47.9,14.0,30.11,WNW,286,8.0,9.0,26,0.00,,,0.00,weatherlink.com 1.10,2013-03-04 17:49:00,
2013-03-04 13:04:00,49.2,15.0,30.10,WNW,283,3.0,7.0,25,0.00,,,0.00,weatherlink.com 1.10,2013-03-04 18:04:00,
2013-03-04 13:19:00,49.6,13.0,30.09,ENE,65,4.0,9.0,23,0.00,,,0.00,weatherlink.com 1.10,2013-03-04 18:19:00,
2013-03-04 13:34:00,50.3,14.0,30.08,WNW,297,4.0,8.0,23,0.00,,,0.00,weatherlink.com 1.10,2013-03-04 18:34:00,
2013-03-04 13:49:00,51.6,13.0,30.07,West,261,3.0,5.0,21,0.00,,,0.00,weatherlink.com 1.10,2013-03-04 18:49:00,
2013-03-04 14:04:00,51.9,13.0,30.06,NE,49,3.0,4.0,21,0.00,,,0.00,weatherlink.com 1.10,2013-03-04 19:04:00,
2013-03-04 14:19:00,52.7,11.0,30.06,SE,135,1.0,11.0,19,0.00,,,0.00,weatherlink.com 1.10,2013-03-04 19:19:00,
2013-03-04 14:35:00,53.7,11.0,30.05,ENE,76,2.0,8.0,18,0.00,,,0.00,weatherlink.com 1.10,2013-03-04 19:35:00,
2013-03-04 14:50:00,54.4,11.0,30.05,WSW,246,4.0,9.0,18,0.00,,,0.00,weatherlink.com 1.10,2013-03-04 19:50:00,
2013-03-04 15:05:00,54.9,12.0,30.04,East,99,3.0,5.0,18,0.00,,,0.00,weatherlink.com 1.10,2013-03-04 20:05:00,
2013-03-04 15:20:00,55.2,11.0,30.04,NNE,12,3.0,5.0,17,0.00,,,0.00,weatherlink.com 1.10,2013-03-04 20:20:00,
2013-03-04 15:35:00,56.0,13.0,30.03,SSE,163,7.0,7.0,18,0.00,,,0.00,weatherlink.com 1.10,2013-03-04 20:35:00,
2013-03-04 15:50:00,56.3,10.0,30.03,WNW,284,0.0,7.0,16,0.00,,,0.00,weatherlink.com 1.10,2013-03-04 20:50:00,
2013-03-04 16:05:00,56.1,10.0,30.03,SSW,213,1.0,11.0,16,0.00,,,0.00,weatherlink.com 1.10,2013-03-04 21:05:00,
2013-03-04 16:20:00,56.2,10.0,30.03,WSW,238,6.0,8.0,16,0.00,,,0.00,weatherlink.com 1.10,2013-03-04 21:20:00,
2013-03-04 16:35:00,56.2,10.0,30.03,WSW,258,7.0,7.0,16,0.00,,,0.00,weatherlink.com 1.10,2013-03-04 21:35:00,
2013-03-04 16:50:00,55.4,12.0,30.03,West,270,7.0,9.0,18,0.00,,,0.00,weatherlink.com 1.10,2013-03-04 21:50:00,
2013-03-04 17:05:00,54.8,12.0,30.03,WSW,248,3.0,11.0,18,0.00,,,0.00,weatherlink.com 1.10,2013-03-04 22:05:00,
2013-03-04 17:20:00,54.8,15.0,30.04,SW,217,5.0,11.0,21,0.00,,,0.00,weatherlink.com 1.10,2013-03-04 22:20:00,
2013-03-04 17:50:00,53.4,16.0,30.04,WSW,251,1.0,10.0,23,0.00,,,0.00,weatherlink.com 1.10,2013-03-04 22:50:00,
2013-03-04 18:05:00,52.1,17.0,30.05,SW,224,1.0,6.0,25,0.00,,,0.00,weatherlink.com 1.10,2013-03-04 23:05:00,
2013-03-04 18:20:00,50.9,16.0,30.05,SSW,200,1.0,3.0,25,0.00,,,0.00,weatherlink.com 1.10,2013-03-04 23:20:00,
2013-03-04 18:35:00,50.2,16.0,30.05,SW,221,2.0,7.0,26,0.00,,,0.00,weatherlink.com 1.10,2013-03-04 23:35:00,
2013-03-04 18:50:00,49.4,17.0,30.05,SW,224,2.0,3.0,27,0.00,,,0.00,weatherlink.com 1.10,2013-03-04 23:50:00,
2013-03-04 19:05:00,48.2,17.0,30.06,SSW,202,2.0,4.0,29,0.00,,,0.00,weatherlink.com 1.10,2013-03-05 00:05:00,
2013-03-04 19:20:00,47.8,18.0,30.06,SSW,207,1.0,4.0,30,0.00,,,0.00,weatherlink.com 1.10,2013-03-05 00:20:00,
2013-03-04 19:35:00,47.0,18.0,30.06,SSW,213,1.0,3.0,32,0.00,,,0.00,weatherlink.com 1.10,2013-03-05 00:35:00,
2013-03-04 19:50:00,46.3,18.0,30.06,SSW,208,2.0,4.0,33,0.00,,,0.00,weatherlink.com 1.10,2013-03-05 00:50:00,
2013-03-04 20:05:00,46.5,19.0,30.06,SW,236,0.0,4.0,34,0.00,,,0.00,weatherlink.com 1.10,2013-03-05 01:05:00,
2013-03-04 20:20:00,46.0,20.0,30.06,SW,236,1.0,3.0,35,0.00,,,0.00,weatherlink.com 1.10,2013-03-05 01:20:00,
2013-03-04 20:35:00,45.7,19.0,30.06,WSW,238,1.0,3.0,35,0.00,,,0.00,weatherlink.com 1.10,2013-03-05 01:35:00,
2013-03-04 20:50:00,45.8,19.0,30.06,SW,235,1.0,2.0,35,0.00,,,0.00,weatherlink.com 1.10,2013-03-05 01:50:00,
2013-03-04 21:05:00,44.9,21.0,30.07,SW,235,0.0,1.0,38,0.00,,,0.00,weatherlink.com 1.10,2013-03-05 02:05:00,
2013-03-04 21:20:00,43.5,23.0,30.07,SW,235,0.0,1.0,45,0.00,,,0.00,weatherlink.com 1.10,2013-03-05 02:20:00,
2013-03-04 21:35:00,42.2,25.0,30.07,SSW,202,0.0,2.0,50,0.00,,,0.00,weatherlink.com 1.10,2013-03-05 02:35:00,
2013-03-04 21:50:00,40.0,23.0,30.07,SSW,202,0.0,0.0,50,0.00,,,0.00,weatherlink.com 1.10,2013-03-05 02:50:00,
2013-03-04 22:05:00,39.3,25.0,30.08,SSW,202,0.0,0.0,58,0.00,,,0.00,weatherlink.com 1.10,2013-03-05 03:05:00,
2013-03-04 22:20:00,38.8,26.0,30.07,SSW,202,0.0,0.0,61,0.00,,,0.00,weatherlink.com 1.10,2013-03-05 03:20:00,
2013-03-04 22:35:00,38.6,26.0,30.07,SW,225,2.0,2.0,62,0.00,,,0.00,weatherlink.com 1.10,2013-03-05 03:35:00,
2013-03-04 22:50:00,38.1,25.0,30.07,SW,225,0.0,0.0,60,0.00,,,0.00,weatherlink.com 1.10,2013-03-05 03:50:00,
2013-03-04 23:05:00,38.0,25.0,30.07,SW,225,0.0,1.0,59,0.00,,,0.00,weatherlink.com 1.10,2013-03-05 04:05:00,
2013-03-04 23:19:00,37.1,26.0,30.07,SW,225,0.0,0.0,65,0.00,,,0.00,weatherlink.com 1.10,2013-03-05 04:19:00,
2013-03-04 23:35:00,36.8,25.0,30.06,SW,225,0.0,0.0,62,0.00,,,0.00,weatherlink.com 1.10,2013-03-05 04:35:00,
2013-03-04 23:50:00,36.9,25.0,30.06,SW,225,0.0,0.0,63,0.00,,,0.00,weatherlink.com 1.10,2013-03-05 04:50:00,